Weather in Christchurch

United Kingdom     50°44′03″N   1°45′26″W
В апреле 2022 года жителям России запретили посещать сайт meteo.paraplan.net по решению Генеральной прокуратуры. Аудитория сайта уменьшилась в 10 раз. Владельцы сайта не видят смысла в поддержке погодного сервера в таких условиях. Сайт будет закрыт в октябре.
temp.,
°C
wind,
m/s
gust,
m/s
humid.,
%
clouds,
%
prec.,
mm/h
press.,
hPa
HPBL,
m
30 september, fri
fri3001:00+10nw338091 0.0 101088
04:00+10nw238530 0.0 101086
07:00+10wsw228370 0.0 101098
10:00+16sw686796 0.0 10091096
13:00+16ssw111371100 0.0 10071211
16:00+14sw131886100 2.6 10051118
19:00+16sw152093100 6.3 10021210
22:00+16w81485100 1.5 1002755
1 october, sat
sat101:00+14w81390100 1.5 1003662
04:00+14w81487100 0.0 1004724
07:00+13w7138918 0.0 1006620
10:00+15w8128079 0.0 1008978
13:00+18w8115890 0.0 10101756
16:00+18wsw81158100 0.0 10121646
19:00+16w7116926 0.1 1013754
22:00+15w61279100 0.0 1016651
2 october, sun
sun201:00+13w5108960 0.0 1017481
04:00+13w4790100 0.0 1018295
07:00+14w2489100 0.1 1019173
10:00+14s1293100 2.3 1019144
13:00+16sw51094100 4.3 1018641
16:00+17wsw81490100 2.4 1017786
19:00+17wsw8129169 2.5 1018656
22:00+17wsw588966 0.3 1018466
3 october, mon
mon301:00+14n6895100 0.3 1019301
04:00+13nne6993100 0.0 1020355
07:00+13nne579299 0.1 1021307
10:00+13ne5790100 0.1 1022286
13:00+16ne3481100 0.1 1021522
16:00+18ne2374100 0.1 1020622
19:00+16n348398 0.1 1020166
22:00+15nw2386100 0.0 1020107
4 october, tue
tue401:00+14w238832 0.0 101887
04:00+13w238817 0.0 1017104
07:00+14sw468590 0.0 1016328
10:00+17sw6878100 0.0 1015605
13:00+18sw810745 0.0 1015693
16:00+18sw81378100 0.0 1014839
19:00+17sw71291100 0.0 1013599
22:00+17wsw61190100 0.0 1014537